Regional Weather Roundup
Issued by NWS

Home | Current Version | Previous Version | Text Only | Print | Product List | Glossary Off
Versions: 1 2 3 4 5 6 7 8 9 10 11 12 13 14 15 16 17 18 19 20 21 22 23 24 25 26 27 28 29 30 31 32 33 34 35 36 37 38 39 40 41 42 43 44 45 46 47 48 49 50

000
ASUS43 KMPX 241710
RWRMN
WEATHER ROUNDUP FOR MINNESOTA
NATIONAL WEATHER SERVICE TWIN CITIES/CHANHASSEN MN
1100 AM CST FRI NOV 24 2017


NOTE: "FAIR" INDICATES FEW OR NO CLOUDS BELOW 12,000 FEET WITH NO
SIGNIFICANT WEATHER AND/OR OBSTRUCTIONS TO VISIBILITY. N/A MEANS
CURRENT SKY AND/OR WEATHER CONDITIONS ARE NOT AVAILABLE.

MNZ060>063-068>070-241800-
   Twin Cities Metro

CITY           SKY/WX    TMP DP  RH WIND       PRES   REMARKS
TWIN CITIES    CLOUDY    54  40  59 W13       29.35R
ST PAUL        MOSUNNY   55  40  56 W10       29.36R
CRYSTAL        CLOUDY    55  37  50 W9        29.33S
BLAINE         MOSUNNY   55  39  54 SW8       29.33F
LAKEVILLE      CLOUDY    55  39  54 W10G17    29.34S
EDEN PRAIRIE   SUNNY     55  39  54 W7        29.34R
SOUTH ST PAUL  SUNNY     56  39  53 W6        29.34S
LAKE ELMO      FAIR      54  41  62 W8        29.35S
$$
MNZ001>005-007-008-013>017-022>024-027-028-241800-
   Northwest Minnesota

CITY           SKY/WX    TMP DP  RH WIND       PRES   REMARKS
BEMIDJI        CLOUDY    40  39  95 W13       29.35R
HALLOCK        CLOUDY    37  36  93 W10       29.38R
ROSEAU         CLOUDY    39  34  81 W9G17     29.34R
WARROAD        CLOUDY    37  34  87 W7        29.33R
THIEF RVR FALL CLOUDY    38  35  89 W8        29.38R
CROOKSTON      MOSUNNY   39  37  93 NW13      29.40R
FOSSTON        DRIZZLE   37  36  93 W7        29.39R
DETROIT LAKES  CLOUDY    43  39  87 NW24      29.41R
MOORHEAD       CLOUDY    43  39  87 N18       29.43R
PARK RAPIDS    PTSUNNY   45  41  86 W17       29.33R
MAHNOMEN       DRIZZLE   40  38  95 NW10G17   29.40R
$$
MNZ006-009>011-018-025>026-241800-
   North Central Minnesota

CITY           SKY/WX    TMP DP  RH WIND       PRES   REMARKS
BAUDETTE       CLOUDY    38  33  82 W10       29.31R
FLAG ISLAND    CLOUDY    36  30  80 W10       29.31R
INTL FALLS     CLOUDY    39  33  79 W9        29.28R
WASKISH        DRIZZLE   36  36 100 SW6       29.33R
BIG FORK       CLOUDY    41  39  93 CALM      29.30R
LONGVILLE      DRIZZLE   43  41  93 W3        29.30R
GRAND RAPIDS   CLOUDY    43  40  89 NW9       29.31R
CRANE LAKE     DRIZZLE   37  36  93 CALM      29.25R
ORR            CLOUDY    39  36  87 W6        29.24R
COOK           CLOUDY    39  39 100 W7        29.28R
WALKER         CLOUDY    43  40  92 NW12G18   29.33R
$$
MNZ012-019>021-037-241800-
   Northeast Minnesota

CITY           SKY/WX    TMP DP  RH WIND       PRES   REMARKS
DULUTH         LGT RAIN  41  38  89 W9        29.26S
ELY            DRIZZLE   39  39 100 SW3       29.23R
HIBBING        LGT RAIN  37  37 100 CALM      29.26R
EVELETH        CLOUDY    37  34  89 CALM      29.27S
DULUTH HARBOR  RAIN      43  37  81 SW20      29.31R
TWO HARBORS    CLOUDY    45  39  81 W5        29.23F
SILVER BAY     LGT RAIN  43  39  87 CALM      29.21R
GRAND MARAIS     N/A     42  40  92 W5        29.21R
G MARAIS ARPRT CLOUDY    41  34  75 W5        29.20S
$$
MNZ029>031-032-039>041-046>048-054>057-064-241800-
   West Central Minnesota

CITY           SKY/WX    TMP DP  RH WIND       PRES   REMARKS
FERGUS FALLS   CLOUDY    43  43 100 W9        29.43R
WHEATON        CLOUDY    50  43  76 W10G16    29.43R
MORRIS         LGT RAIN  46  43  87 CALM      29.40S
ALEXANDRIA     LGT RAIN  48  44  86 W12       29.40R
ELBOW LAKE     PTSUNNY   43  42  98 SW9       29.40S
WADENA         LGT RAIN  45  43  93 SW9       29.34R
GLENWOOD       LGT RAIN  52  45  76 NW20      29.41R
APPLETON       LGT RAIN  54  43  66 NW9       29.44R
BENSON         LGT RAIN  54  43  66 N17G26    29.45R
ORTONVILLE     DRIZZLE   48  41  76 NW5       29.44S
MADISON        LGT RAIN  57  41  54 NW14      29.46R
WILLMAR        FAIR      52  41  66 NW14      29.42R
$$
MNZ033>034-036-042>043-049>051-058-059-241800-
   Central Minnesota

CITY           SKY/WX    TMP DP  RH WIND       PRES   REMARKS
ST CLOUD       PTSUNNY   52  40  63 NW12      29.35R
SAUK CENTRE    PTSUNNY   51  40  65 NW9G17    29.38R
PAYNESVILLE    CLOUDY    55  41  61 NW13G21   29.38R
AITKIN         MOSUNNY   45  37  76 W3        29.30R
PINE RIVER     DRIZZLE   43  39  87 CALM      29.34S
BRAINERD       PTSUNNY   46  39  76 W8        29.33R
STAPLES        RAIN      45  41  87 SW8       29.32F
LONG PRAIRIE   PTSUNNY   52  41  66 W13       29.37R
LITTLE FALLS   PTSUNNY   50  32  50 W5        29.35R
LITCHFIELD     SUNNY     55  41  58 W12G17    29.38R
BUFFALO        SUNNY     54  38  56 W9        29.37R
MAPLE LAKE     SUNNY     55  41  60 W9        29.37R
HUTCHINSON     CLOUDY    56  41  58 NW14G20   29.38R
$$
MNZ037-044-045-052-053-241800-
   East Central Minnesota

CITY           SKY/WX    TMP DP  RH WIND       PRES   REMARKS
PRINCETON      MOSUNNY   55  39  54 W14       29.35R
MORA           CLOUDY    45  37  76 CALM      29.33F
CAMBRIDGE      MOSUNNY   55  39  54 W8        29.34S
RUSH CITY      MOSUNNY   51  39  63 CALM      29.31F
MOOSE LAKE     CLOUDY    39  36  87 SW3       29.29F
HINCKLEY       FAIR      50  39  66 W5        29.31R
CLOQUET        CLOUDY    41  37  87 NW5       29.28R
MCGREGOR       CLOUDY    45  39  81 W5        29.31R
$$
MNZ071>073-080-081-089-090-097-098-241800-
   Southwest Minnesota

CITY           SKY/WX    TMP DP  RH WIND       PRES   REMARKS
MONTEVIDEO     MOSUNNY   55  39  54 N13       29.45R
GRANITE FALLS  MOSUNNY   58  42  54 W20G29    29.47R
CANBY          PTSUNNY   60  41  49 NW17G31   29.49R
MARSHALL       CLOUDY    61  40  45 NW25      29.46R
REDWOOD FALLS  SUNNY     59  38  45 NW14G23   29.41R
OLIVIA         SUNNY     55  39  54 NW21G26   29.39R
PIPESTONE      CLOUDY    48  37  66 NW15G26   29.51R
WINDOM         MOSUNNY   59  39  47 W15G22    29.41R
WORTHINGTON    MOSUNNY   56  40  55 NW18G25   29.45R
JACKSON        MOSUNNY   57  39  51 NW12      29.41R
SLAYTON        MOSUNNY   55  40  57 NW22      29.47R
$$
MNZ065>067-074>077-082>085-091>093-241800-
   South Central Minnesota

CITY           SKY/WX    TMP DP  RH WIND       PRES   REMARKS
MANKATO        SUNNY     55  40  56 W12       29.38R
NEW ULM        SUNNY     57  39  51 CALM      29.38R
ST JAMES       SUNNY     59  39  47 W20G26    29.40R
GLENCOE        SUNNY     55  40  58 W14       29.35F
FARIBAULT      SUNNY     55  41  58 SW9       29.36F
OWATONNA       SUNNY     57  43  58 SW12      29.37R
WASECA         SUNNY     54  39  58 SW12      29.39S
ALBERT LEA     SUNNY     55  37  50 SW14      29.38F
$$
MNZ078>079-086>088-094>096-241800-
   Southeast Minnesota

CITY           SKY/WX    TMP DP  RH WIND       PRES   REMARKS
ROCHESTER      SUNNY     55  40  56 SW18      29.37F
RED WING       SUNNY     57  36  44 W7        29.35R
STANTON        SUNNY     58  40  51 SW14G21   29.33F
DODGE CENTER   SUNNY     54  37  54 SW17G25   29.36F
WINONA         SUNNY     55  37  50 S6        29.36F
AUSTIN         SUNNY     54  39  58 SW14      29.39R
PRESTON        SUNNY     54  38  53 SW16G28   29.37F
$$
ABBREVIATIONS USED IN REMARKS
   TC - TEMPERATURES IN CELSIUS
  WCI - WIND CHILL INDEX
   HX - HEAT INDEX
  VSB - VISIBILITY
$$



USA.gov is the U.S. government's official web portal to all federal, state and local government web resources and services.